User: anonymous   Login
Location: ???????
(54.9996°N, 37.9529°E)
Time: 06:00:40
(UTC+00:00)
Language:

SWAS - Orbit

View from above orbital plane
View from above orbital plane
View from above satellite
View from above satellite

Ground track
Ground track

The orbit data is extracted from the following two-line orbital elements,

1 25560U 98071A   24174.55535843  .00004326  00000-0  35046-3 0  9995
2 25560  69.8994 284.8016 0009587 278.2238  81.7834 15.00428112388199
Epoch (UTC): 22 June 2024 13:19:42
Eccentricity: 0.0009587
inclination: 69.8994°
perigee height: 559 km
apogee height: 572 km
right ascension of ascending node: 284.8016°
argument of perigee: 278.2238°
revolutions per day: 15.00428112
mean anomaly at epoch: 81.7834°
orbit number at epoch: 38819

The dashed part of the orbit path shows where the satellite is in the earth's shadow,  

DLR